Weather History for Jackson, WY

Change the Weather History Date:

Thursday, April 25, 2013

  Actual Average Record
Temperature  
Mean Temperature 37 °F -  
Max Temperature 55 °F 52 °F 72 °F (1977)
Min Temperature 19 °F 25 °F 10 °F (1985)
Degree Days  
Heating Degree Days 28    
Moisture  
Dew Point 15 °F    
Average Humidity 50    
Maximum Humidity 86    
Minimum Humidity 13    
Precipitation  
Precipitation 0.00 in - - ()
Sea Level Pressure  
Sea Level Pressure 30.07 in    
Wind  
Wind Speed 4 mph (West)    
Max Wind Speed 17 mph    
Max Gust Speed 29 mph    
Visibility 10 miles    
Events      
Averages and records for this station are not official NWS values.
T = Trace of Precipitation, MM = Missing Value Source: NWS Daily Summary

Daily Weather History Graph

Daily Weather History Graph

Search for Another Location

Airport:

Trip Planner

Search our weather history database for the weather conditions in past years. The results will help you decide how hot, cold, wet, or windy it might be!

Date:

Astronomy

Apr. 25, 2013 Rise Set
Actual Time 6:23 AM MDT 8:18 PM MDT
Civil Twilight 5:52 AM MDT 8:49 PM MDT
Nautical Twilight 5:15 AM MDT 9:27 PM MDT
Astronomical Twilight 4:34 AM MDT 10:08 PM MDT
Moon 8:37 PM MDT (4/25) 6:09 AM MDT (4/25)
Length of Visible Light 14h 56m
Length of Day
13h 54m
Full, 100% of the Moon is Illuminated
Apr 25
Full
Apr 25
Full
May 2
Last Quarter
May 9
New
May 17
First Quarter

Hourly Weather History & Observations

Time (MDT) Temp. Windchill Dew Point Humidity Pressure Visibility Wind Dir Wind Speed Gust Speed Precip Events Conditions
12:15 AM 32.0 °F - 14.0 °F 48% 30.13 in - Calm Calm - N/A   Clear
12:35 AM 30.2 °F 24.3 °F 17.6 °F 60% 30.13 in - WSW 5.8 mph - N/A   Clear
12:55 AM 30.2 °F 26.7 °F 17.6 °F 60% 30.13 in 10.0 mi WSW 3.5 mph - N/A   Clear
1:15 AM 30.2 °F - 17.6 °F 60% 30.12 in 10.0 mi Calm Calm - N/A   Clear
1:55 AM 30.2 °F - 17.6 °F 60% 30.11 in - Calm Calm - N/A   Clear
2:15 AM 30.2 °F 26.7 °F 17.6 °F 60% 30.10 in - SSW 3.5 mph - N/A   Clear
2:35 AM 28.4 °F - 19.4 °F 69% 30.10 in - Calm Calm - N/A   Clear
2:55 AM 28.4 °F 23.3 °F 19.4 °F 69% 30.09 in 10.0 mi NE 4.6 mph - N/A   Clear
3:35 AM 26.6 °F - 19.4 °F 74% 30.08 in 10.0 mi Calm Calm - N/A   Clear
3:55 AM 23.0 °F 12.4 °F 17.6 °F 80% 30.08 in 10.0 mi North 10.4 mph - N/A   Clear
4:15 AM 24.8 °F 17.9 °F 19.4 °F 80% 30.08 in 10.0 mi North 5.8 mph - N/A   Clear
4:35 AM 23.0 °F 17.0 °F 19.4 °F 86% 30.08 in 10.0 mi NE 4.6 mph - N/A   Clear
4:55 AM 24.8 °F 19.1 °F 19.4 °F 80% 30.08 in 10.0 mi North 4.6 mph - N/A   Clear
5:15 AM 21.2 °F - 17.6 °F 86% 30.08 in 10.0 mi Calm Calm - N/A   Clear
5:35 AM 21.2 °F 14.9 °F 17.6 °F 86% 30.08 in 10.0 mi North 4.6 mph - N/A   Clear
6:15 AM 19.4 °F 9.5 °F 15.8 °F 86% 30.08 in 10.0 mi North 8.1 mph - N/A   Clear
6:35 AM 19.4 °F 10.4 °F 15.8 °F 86% 30.08 in 10.0 mi North 6.9 mph - N/A   Clear
6:51 AM 21.2 °F 10.1 °F 17.6 °F 86% 30.08 in 10.0 mi North 10.4 mph - N/A   Clear
7:51 AM 24.8 °F - 19.4 °F 80% 30.09 in 10.0 mi Calm Calm - N/A   Clear
8:55 AM 33.8 °F 29.6 °F 19.4 °F 56% 30.09 in 10.0 mi South 4.6 mph - N/A   Clear
11:03 AM 46.4 °F 40.7 °F 15.8 °F 29% 30.05 in 10.0 mi SSW 12.7 mph - N/A   Clear
11:58 AM 50.0 °F - 12.2 °F 22% 30.02 in 10.0 mi SSW 13.8 mph 17.3 mph N/A   Clear
12:51 PM 53.6 °F - 8.6 °F 16% 29.98 in 10.0 mi SSW 17.3 mph 28.8 mph N/A   Clear
1:51 PM 51.8 °F - 10.4 °F 19% 29.99 in 10.0 mi South 4.6 mph 21.9 mph N/A   Clear
2:51 PM 53.6 °F - 3.2 °F 13% 29.99 in 10.0 mi WSW 10.4 mph 23.0 mph N/A   Clear
3:57 PM 55.4 °F - 6.8 °F 14% 29.97 in 10.0 mi West 13.8 mph 21.9 mph N/A   Clear
4:51 PM 55.4 °F - 6.8 °F 14% 29.98 in 10.0 mi SW 15.0 mph 26.5 mph N/A   Clear
5:55 PM 53.6 °F - 8.6 °F 16% 30.00 in 10.0 mi WSW 9.2 mph - N/A   Clear
6:51 PM 53.6 °F - 8.6 °F 16% 30.01 in 10.0 mi West 9.2 mph - N/A   Clear
7:53 PM 48.2 °F - 10.4 °F 22% 30.02 in 10.0 mi South 4.6 mph - N/A   Clear
8:51 PM 44.6 °F 43.1 °F 10.4 °F 25% 30.04 in 10.0 mi SSW 3.5 mph - N/A   Clear
8:55 PM 44.6 °F - 10.4 °F 25% 30.05 in 10.0 mi Calm Calm - N/A   Clear
9:15 PM 42.8 °F - 14.0 °F 31% 30.06 in 10.0 mi Calm Calm - N/A   Clear
9:35 PM 39.2 °F - 14.0 °F 36% 30.07 in 10.0 mi Calm Calm - N/A   Clear
9:55 PM 42.8 °F - 12.2 °F 29% 30.08 in 10.0 mi Calm Calm - N/A   Clear
10:15 PM 39.2 °F - 17.6 °F 42% 30.09 in 10.0 mi Calm Calm - N/A   Clear
10:35 PM 37.4 °F - 19.4 °F 48% 30.10 in 10.0 mi Calm Calm - N/A   Clear
10:55 PM 35.6 °F - 17.6 °F 48% 30.10 in 10.0 mi Calm Calm - N/A   Clear
11:15 PM 33.8 °F 29.6 °F 17.6 °F 52% 30.11 in - WNW 4.6 mph - N/A   Clear